Zurück zum Katalog

SL-14 DEB

AktivPO
NORAD 45274·DEBRIS·🇷🇺 Russia

Gestartet Aug 15, 1991 von Plesetsk Cosmodrome

Loading…

Nächste Überflüge (nächste 24 Stunden)

TLE

AktuellSource: Space-Track

Epoche: Sep 14, 2026, 10:59 UTC

1 45274U 91056L   26257.45787936  .00000185  00000-0  44379-3 0  9998
2 45274  82.5337  71.7110 0027317 282.3008  77.5057 13.17790105316489

Verfolge SL-14 DEB in Echtzeit mit AllMySat

Download on the App Store